Location: Czekanka
(50.4925°N, 19.2643°E)
Time: 01:25:25
(UTC+00:00)

ADEOS II - Pass Details

Date: 18 September 2024
Orbit: 795 x 798 km, 98.7° (Epoch: 09 October)

Event Time Altitude Azimuth Distance (km) Brightness Sun altitude
Rises 03:32:46 0° 2° (N) 3,312 5.5 -8.8°
Reaches altitude 10° 03:36:58 10° 329° (NNW) 2,376 4.4 -8.2°
Maximum altitude 03:38:26 11° 313° (NW) 2,291 4.1 -7.9°
Drops below altitude 10° 03:39:54 10° 296° (WNW) 2,373 4.1 -7.7°
Enters shadow 03:41:32 - 280° (W) 2,636 4.2 -7.5°
